SCP
1 1 1 0 0 0 0 0 1 4 3 3 3 4 5 3 3 5 5 4 5 4
1 2 1 1 1 0 1 1 1 1 2 6 5 6 5 5 5 5 6 8 7 6
0 1 1 1 1 1 1 1 2 2 3 12 6 5 5 6 6 5 6 7 4 4
0 0 1 1 1 1 1 2 1 2 2 2 4 6 5 5 6 5 5 4 3 4
0 0 0 0 0 1 1 1 1 1 2 2 3 4 3 3 4 4 4 3 3 3
0 1 1 0 0 0 0 1 1 1 1 2 2 2 3 2 3 3 2 2 3 3
0 0 0 0 0 0 0 0 0 0 1 1 1 1 2 3 4 3 3 3 2 2
0 0 0 0 0 0 0 0 0 0 0 1 1 1 1 3 4 3 3 2 2 4
0 0 0 0 0 0 0 0 0 0 0 1 1 1 1 3 3 2 2 2 4 3
0 0 0 0 0 0 0 0 0 0 0 1 1 1 0 2 3 2 2 4 4 2
0 0 0 0 0 0 0 0 0 0 1 1 1 0 0 1 3 3 4 3 2 2
0 0 0 0 0 0 0 0 0 0 0 1 1 0 0 3 3 3 3 3 2 1
0 0 0 0 0 0 0 0 0 0 0 1 1 0 0 4 4 3 3 2 0 0
0 0 0 0 0 0 0 -0 0 0 1 1 1 0 0 2 2 2 2 1 1 0
Wind_Speed_500mb
25 35 43 47 35 42 50 61 60 51 49 61 69 65 71 90 76 67 81 82 71 76
24 28 33 43 45 47 51 54 64 59 56 51 56 69 62 63 67 75 79 86 78 74
24 23 28 33 38 44 53 61 62 61 53 43 57 56 60 64 71 70 78 86 78 65
29 31 33 36 34 40 48 52 56 63 66 54 62 68 69 71 75 73 79 82 71 57
32 35 39 43 48 45 45 51 51 56 63 60 64 74 64 74 80 77 78 75 66 53
40 37 38 44 47 53 58 55 53 50 60 59 61 68 69 63 72 77 74 66 61 54
43 48 58 59 60 58 55 59 61 58 55 61 66 65 71 73 75 71 68 60 51 52
50 55 59 62 63 65 62 57 60 64 60 63 67 71 71 73 76 59 66 58 57 54
59 62 65 66 69 70 69 66 70 73 67 60 67 70 71 75 66 61 62 59 60 46
65 72 76 76 73 75 75 66 70 70 68 62 73 66 68 75 67 61 62 64 56 50
68 74 78 79 81 78 73 72 72 75 71 69 75 62 69 75 67 61 65 52 48 49
85 85 79 77 82 82 73 74 77 79 75 70 72 65 72 75 69 57 49 47 51 44
77 85 82 82 82 81 76 75 75 84 79 71 67 64 73 82 62 51 47 50 44 37
76 79 89 72 79 74 70 71 79 79 68 69 68 72 73 69 57 55 52 51 48 48
Wind_Direction_500mb
259 254 256 262 260 255 250 245 242 261 259 260 261 258 259 257 257 250 244 247 244 243
267 263 264 259 251 249 251 250 247 242 247 258 254 251 262 263 257 250 249 252 249 241
278 268 270 282 283 273 261 253 255 251 250 260 259 245 251 261 252 250 246 249 247 236
261 263 258 260 268 272 274 268 262 257 252 245 253 255 257 247 246 244 243 245 239 238
262 265 266 265 263 263 263 266 262 266 263 258 247 256 252 244 241 236 237 237 235 236
276 275 270 268 268 266 265 265 268 255 263 255 250 241 248 244 238 234 238 235 230 224
275 275 269 268 272 276 272 270 268 256 257 259 249 246 237 239 240 237 228 231 227 221
280 281 283 282 277 276 276 270 265 266 249 257 248 244 235 233 236 233 216 221 224 224
282 283 283 279 275 274 272 269 268 264 254 256 248 244 238 230 229 213 217 214 215 220
277 276 278 279 273 269 269 269 268 264 261 248 244 245 233 225 221 211 208 213 217 218
275 275 269 270 268 266 264 265 265 261 263 248 240 240 224 219 209 207 209 218 219 216
273 265 266 264 260 263 259 260 260 263 265 247 239 233 218 214 205 202 207 211 216 215
262 261 260 263 256 258 257 256 256 266 262 244 238 222 213 207 195 193 196 206 201 197
263 258 254 267 252 253 253 259 259 264 249 239 226 211 205 206 190 195 192 191 193 197
Wind_Speed_850mb
25 35 43 47 35 42 50 61 60 51 49 61 69 65 71 90 76 67 81 82 71 76
24 28 33 43 45 47 51 54 64 59 56 51 56 69 62 63 67 75 79 86 78 74
24 23 28 33 38 44 53 61 62 61 53 43 57 56 60 64 71 70 78 86 78 65
29 31 33 36 34 40 48 52 56 63 66 54 62 68 69 71 75 73 79 82 71 57
32 35 39 43 48 45 45 51 51 56 63 60 64 74 64 74 80 77 78 75 66 53
40 37 38 44 47 53 58 55 53 50 60 59 61 68 69 63 72 77 74 66 61 54
43 48 58 59 60 58 55 59 61 58 55 61 66 65 71 73 75 71 68 60 51 52
50 55 59 62 63 65 62 57 60 64 60 63 67 71 71 73 76 59 66 58 57 54
59 62 65 66 69 70 69 66 70 73 67 60 67 70 71 75 66 61 62 59 60 46
65 72 76 76 73 75 75 66 70 70 68 62 73 66 68 75 67 61 62 64 56 50
68 74 78 79 81 78 73 72 72 75 71 69 75 62 69 75 67 61 65 52 48 49
85 85 79 77 82 82 73 74 77 79 75 70 72 65 72 75 69 57 49 47 51 44
77 85 82 82 82 81 76 75 75 84 79 71 67 64 73 82 62 51 47 50 44 37
76 79 89 72 79 74 70 71 79 79 68 69 68 72 73 69 57 55 52 51 48 48
Wind_Direction_850mb
259 254 256 262 260 255 250 245 242 261 259 260 261 258 259 257 257 250 244 247 244 243
267 263 264 259 251 249 251 250 247 242 247 258 254 251 262 263 257 250 249 252 249 241
278 268 270 282 283 273 261 253 255 251 250 260 259 245 251 261 252 250 246 249 247 236
261 263 258 260 268 272 274 268 262 257 252 245 253 255 257 247 246 244 243 245 239 238
262 265 266 265 263 263 263 266 262 266 263 258 247 256 252 244 241 236 237 237 235 236
276 275 270 268 268 266 265 265 268 255 263 255 250 241 248 244 238 234 238 235 230 224
275 275 269 268 272 276 272 270 268 256 257 259 249 246 237 239 240 237 228 231 227 221
280 281 283 282 277 276 276 270 265 266 249 257 248 244 235 233 236 233 216 221 224 224
282 283 283 279 275 274 272 269 268 264 254 256 248 244 238 230 229 213 217 214 215 220
277 276 278 279 273 269 269 269 268 264 261 248 244 245 233 225 221 211 208 213 217 218
275 275 269 270 268 266 264 265 265 261 263 248 240 240 224 219 209 207 209 218 219 216
273 265 266 264 260 263 259 260 260 263 265 247 239 233 218 214 205 202 207 211 216 215
262 261 260 263 256 258 257 256 256 266 262 244 238 222 213 207 195 193 196 206 201 197
263 258 254 267 252 253 253 259 259 264 249 239 226 211 205 206 190 195 192 191 193 197